Tiempo atmosférico en la estación meteorológica de Ólvega, Soria (1039 m.)



Fecha
DESCASC
Temp. máxima en grados centígrados (hora)
DESCASC
Temp. mínima en grados centígrados (hora)
DESCASC
Temp. media en grados centígrados
DESCASC
Racha de viento máxima en m/sg (hora)
DESCASC
Velocidad máxima media en intervalos de 10 minutos(hora)
DESCASC
Precipitaciones diarias en mm
DESCASC
Precipitaciones de 00:00 a 06:00 en mm
DESCASC
Precipitaciones de 06:00 a 12:00 en mm
DESCASC
Precipitaciones de 12:00 a 18:00 en mm
DESCASC
Precipitaciones de 18:00 a 24:00 en mm
DESCASC
31-03-2020 4.1 (23:50) -3.1 (04:40) 0.5 13.89 (23:10) 10.28 (23:10) 11.4 1.6 2.6 6.6 0.6
29-03-2020 12.4 (15:40) 0.1 (00:00) 6.2 13.06 (18:40) 6.94 (16:00) 0 0 0 0 0
28-03-2020 14.4 (16:50) -1.8 (-00:0) 6.3 7.78 (16:10) 3.89 (14:20) 0 0 0 0 0
27-03-2020 9.1 (15:40) -3.1 (-00:0) 3 8.89 (14:40) 5 (15:10) 0 0 0 0 0
26-03-2020 7.7 (15:40) -0.4 (00:00) 3.6 18.89 (13:40) 8.89 (13:20) 0 0 0 0 0
25-03-2020 11 (17:20) 1.8 (00:00) 6.4 7.78 (14:40) 4.72 (13:40) 0 0 0 0 0
24-03-2020 10.6 (11:30) 4.1 (00:00) 7.4 10.56 (10:40) 5.83 (11:10) 0 0 0 0 0
23-03-2020 11.8 (17:10) 3.4 (00:00) 7.6 9.72 (14:10) 5.83 (14:30) 0.8 0.2 0.6 0 0
22-03-2020 11.9 (14:20) 3.9 (22:20) 7.9 10.56 (14:40) 5.83 (15:50) 0 0 0 0 0
21-03-2020 12.9 (15:20) 2.5 (00:00) 7.7 8.89 (01:40) 4.44 (01:40) 0 0 0 0 0
20-03-2020 12.5 (14:30) 0 (00:00) 6.3 9.72 (20:40) 6.11 (20:50) 0 0 0 0 0
19-03-2020 13.5 (14:20) 4.2 (00:00) 8.8 10.83 (10:40) 7.5 (09:20) 0 0 0 0 0
18-03-2020 16.5 (14:30) 2.3 (00:00) 9.4 5.28 (16:40) 3.33 (16:40) 0 0 0 0 0
17-03-2020 7 (18:30) 2.9 (00:00) 5 7.5 (22:30) 5 (22:20) 2.4 1.4 0.8 0.2 0
16-03-2020 7.4 (00:40) -0.2 (00:00) 3.6 10.28 (00:10) 7.22 (00:10) 61.4 18.4 22.6 12.4 8
15-03-2020 17.7 (15:50) 3 (00:00) 10.4 13.61 (17:40) 7.78 (19:40) 12 0 0 0 12
14-03-2020 15.1 (16:00) -0.3 (00:00) 7.4 6.39 (12:20) 4.17 (14:30) 0 0 0 0 0
13-03-2020 12.8 (14:50) 3.1 (23:40) 8 7.5 (15:40) 5 (16:00) 0 0 0 0 0
12-03-2020 25.1 (14:20) 7.8 (00:00) 16.5 11.11 (15:30) 6.11 (11:30) 0 0 0 0 0
11-03-2020 24.6 (16:10) 3.9 (00:00) 14.3 10.28 (15:30) 6.11 (17:30) 0 0 0 0 0
10-03-2020 20.1 (15:40) 0.7 (00:00) 10.4 9.72 (17:00) 5 (17:00) 0 0 0 0 0
09-03-2020 10.6 (15:30) 2.5 (00:00) 6.6 13.61 (13:40) 9.17 (11:20) 0 0 0 0 0
08-03-2020 15.2 (13:40) 1.5 (00:00) 8.3 11.67 (22:40) 6.67 (19:20) 0 0 0 0 0
07-03-2020 8.9 (15:30) 1.1 (00:00) 5 11.67 (13:00) 7.78 (12:10) 0 0 0 0 0
06-03-2020 5.2 (14:00) 0.4 (00:00) 2.8 19.17 (17:40) 11.94 (12:20) 0.4 0 0.4 0 0
05-03-2020 11.7 (16:30) 0.7 (00:00) 6.2 20 (13:40) 11.39 (13:40) 1.8 0 0.8 0 1
04-03-2020 14.6 (15:20) 4.5 (00:40) 9.6 16.67 (11:40) 8.06 (10:20) 0 0 0 0 0
03-03-2020 14.7 (16:30) 1.4 (00:00) 8 22.5 (11:50) 13.06 (12:00) 3.2 0.2 3 0 0
02-03-2020 9.2 (04:40) -0.3 (00:00) 4.4 24.17 (01:40) 12.5 (01:50) 18.6 13.4 3 2.2 0

Gráficas

Temp. máximas Temp. mínimas Temp. medias Precipitaciones Rachas de viento máximas Velocidades máximas media en intervalos de 10 minutos

Datos horarios

Fecha y hora oficial Temperatura (ºC) Velocidad del viento (km/h) Dirección del viento Racha (km/h) Dirección de racha Precipitación (mm) Presión (hPa) Tendencia (hPa) Humedad (%)
2020-03-31 23:00:00 3.8 31 Sudeste 43 Sudeste 0 -- -- 91
2020-03-31 22:00:00 3.5 21 Sudeste 45 Sudeste 0 -- -- 91
2020-03-31 21:00:00 3.4 26 Sudeste 45 Sudeste 0 -- -- 94
2020-03-31 20:00:00 3.3 32 Sudeste 49 Sudeste 0 -- -- 91
2020-03-31 19:00:00 3.2 26 Sudeste 42 Sudeste 0.6 -- -- 88
2020-03-31 18:00:00 3 29 Sudeste 49 Sudeste 0.2 -- -- 89
2020-03-31 17:00:00 3.4 17 Sudeste 40 Este 1 -- -- 91
2020-03-31 16:00:00 1.4 8 Norte 24 Nordeste 1.6 -- -- 94
2020-03-31 15:00:00 1 7 Norte 17 Noroeste 1 -- -- 93
2020-03-31 14:00:00 0.5 8 Oeste 14 Noroeste 1.2 -- -- 91
2020-03-31 13:00:00 -0.3 6 Norte 14 Noroeste 1.6 -- -- 93
2020-03-31 12:00:00 -1 8 Norte 13 Noroeste 1 -- -- 94
2020-03-31 11:00:00 -1.7 6 Noroeste 13 Norte 0.2 -- -- 94
2020-03-31 10:00:00 -1.9 4 Noroeste 8 Noroeste 0.2 -- -- 94
2020-03-31 09:00:00 -2.7 4 Noroeste 10 Noroeste 0.6 -- -- 95
2020-03-31 08:00:00 -3 5 Noroeste 9 Noroeste 0.4 -- -- 95
2020-03-31 07:00:00 -3.1 5 Noroeste 10 Noroeste 0.2 -- -- 95
2020-03-31 06:00:00 -3.1 8 Noroeste 10 Noroeste 0.2 -- -- 95
2020-03-31 05:00:00 -3.1 4 Norte 13 Noroeste 0.6 -- -- 95
2020-03-31 04:00:00 -3 9 Norte 14 Noroeste 0.4 -- -- 93
2020-03-31 03:00:00 -2.8 10 Norte 17 Norte 0.4 -- -- 93
2020-03-31 02:00:00 -2.5 8 Norte 19 Norte 0 -- -- 92
2020-03-31 01:00:00 -1.9 11 Norte 21 Norte 0 -- -- 89
2020-03-31 00:00:00 -1.4 14 Norte 24 Norte 0 -- -- 84
2020-03-30 23:00:00 -0.8 12 Norte 24 Nordeste 0 -- -- 74
2020-03-30 22:00:00 -0.4 18 Nordeste 27 Norte 0 -- -- 68
2020-03-30 21:00:00 0 14 Nordeste 25 Nordeste 0 -- -- 68
2020-03-30 20:00:00 0.7 15 Norte 24 Norte 0 -- -- 62
2020-03-30 19:00:00 1.4 17 Norte 28 Norte 0 -- -- 56
2020-03-30 18:00:00 2.2 17 Norte 29 Norte 0 -- -- 52
2020-03-30 17:00:00 3.2 18 Norte 30 Norte 0 -- -- 55
2020-03-30 16:00:00 2.1 15 Norte 28 Norte 0 -- -- 56
2020-03-30 15:00:00 1.6 13 Norte 26 Norte 0 -- -- 66
2020-03-30 14:00:00 0.7 15 Norte 29 Nordeste 0 -- -- 68
2020-03-30 13:00:00 0 18 Norte 29 Norte 0 -- -- 65
2020-03-30 12:00:00 0.1 17 Norte 30 Norte 0 -- -- 67
2020-03-30 11:00:00 -0.2 20 Norte 38 Norte 0 -- -- 67
2020-03-30 10:00:00 -0.7 20 Norte 35 Noroeste 0 -- -- 68
2020-03-30 09:00:00 -1 15 Norte 26 Norte 0 -- -- 76
2020-03-30 08:00:00 -1.1 15 Norte 26 Norte 0 -- -- 81
2020-03-30 07:00:00 -1.2 15 Nordeste 37 Nordeste 0 -- -- 84
2020-03-30 06:00:00 -0.7 20 Norte 36 Norte 0 -- -- 86
2020-03-30 05:00:00 0.4 19 Norte 35 Nordeste 0 -- -- 86
2020-03-30 04:00:00 0.7 17 Norte 32 Norte 0 -- -- 92
2020-03-30 03:00:00 2.4 18 Norte 34 Norte 0 -- -- 86
2020-03-30 02:00:00 3.4 21 Norte 33 Norte 0 -- -- 84
2020-03-30 01:00:00 3.8 13 Norte 30 Norte 0 -- -- 82
2020-03-30 00:00:00 3.4 15 Norte 24 Norte 0 -- -- 83
2020-03-29 23:00:00 4.4 16 Norte 37 Norte 0 -- -- 79
2020-03-29 22:00:00 4.7 18 Nordeste 28 Norte 0 -- -- 84
2020-03-29 21:00:00 5.6 17 Norte 32 Nordeste 0 -- -- 82
2020-03-29 20:00:00 6.2 21 Nordeste 37 Nordeste 0 -- -- 79
2020-03-29 19:00:00 7.8 21 Nordeste 47 Norte 0 -- -- 70
2020-03-29 18:00:00 9.7 24 Norte 36 Norte 0 -- -- 56
2020-03-29 17:00:00 12 22 Norte 38 Norte 0 -- -- 43
2020-03-29 16:00:00 12.1 25 Norte 37 Nordeste 0 -- -- 40
2020-03-29 15:00:00 12.1 21 Norte 32 Norte 0 -- -- 34
2020-03-29 14:00:00 11.9 16 Norte 27 Norte 0 -- -- 38
2020-03-29 13:00:00 10.4 16 Norte 26 Norte 0 -- -- 38
2020-03-29 12:00:00 9.9 14 Norte 23 Norte 0 -- -- 45
2020-03-29 11:00:00 9.4 9 Norte 14 Norte 0 -- -- 53
2020-03-29 10:00:00 10.9 3 Noroeste 5 Noroeste 0 -- -- 50
2020-03-29 09:00:00 4.7 4 Sudeste 6 Sur 0 -- -- 80
2020-03-29 08:00:00 0.1 3 Sur 9 Sudeste 0 -- -- 90
2020-03-29 07:00:00 0.9 2 Sur 11 Sudeste 0 -- -- 88
2020-03-29 06:00:00 0.6 4 Sur 9 Sudeste 0 -- -- 89
2020-03-29 05:00:00 1.5 9 Sudeste 11 Este 0 -- -- 83
2020-03-29 03:00:00 1.6 6 Sudeste 12 Sudeste 0 -- -- 85
2020-03-29 01:00:00 1.3 7 Sudeste 9 Sudeste 0 -- -- 88
2020-03-29 00:00:00 2.3 4 Sudeste 12 Sudoeste 0 -- -- 83
2020-03-28 23:00:00 3.1 5 Este 14 Nordeste 0 -- -- 81
2020-03-28 22:00:00 3.9 6 Sudeste 10 Sudeste 0 -- -- 79
2020-03-28 21:00:00 4.6 3 Sudoeste 10 Sudeste 0 -- -- 76
2020-03-28 20:00:00 6.6 0 Calma 13 Nordeste 0 -- -- 70
2020-03-28 19:00:00 10.7 9 Nordeste 15 Norte 0 -- -- 55
2020-03-28 18:00:00 13.2 12 Norte 22 Norte 0 -- -- 46
2020-03-28 17:00:00 13.8 10 Norte 28 Noroeste 0 -- -- 46
2020-03-28 16:00:00 13.2 14 Norte 23 Norte 0 -- -- 46
2020-03-28 15:00:00 12.6 14 Norte 22 Norte 0 -- -- 49
2020-03-28 14:00:00 12.3 12 Norte 22 Norte 0 -- -- 53
2020-03-28 13:00:00 12.7 9 Norte 16 Norte 0 -- -- 46
2020-03-28 12:00:00 11.8 8 Noroeste 12 Norte 0 -- -- 42
2020-03-28 11:00:00 10.7 4 Noroeste 12 Noroeste 0 -- -- 46
2020-03-28 10:00:00 9.3 5 Norte 9 Norte 0 -- -- 48
2020-03-28 09:00:00 7.7 5 Sudeste 11 Sudeste 0 -- -- 52
2020-03-28 08:00:00 1.9 6 Sudeste 9 Sudeste 0 -- -- 70
2020-03-28 07:00:00 -0.7 4 Sudeste 14 Sudeste 0 -- -- 77
2020-03-28 06:00:00 -1.2 9 Sudeste 15 Sudeste 0 -- -- 78
2020-03-28 05:00:00 -1.8 5 Sudeste 10 Sur 0 -- -- 81
2020-03-28 04:00:00 -1.2 5 Sur 11 Sudeste 0 -- -- 78
2020-03-28 03:00:00 -1.5 4 Sur 9 Sudeste 0 -- -- 80
2020-03-28 02:00:00 -1.5 4 Sur 14 Sudeste 0 -- -- 79
2020-03-28 01:00:00 -1 5 Sur 9 Sudeste 0 -- -- 77
2020-03-28 00:00:00 -0.9 3 Sur 13 Este 0 -- -- 76
2020-03-27 23:00:00 -0.4 7 Sudeste 12 Sudeste 0 -- -- 77
2020-03-27 22:00:00 0 6 Sudeste 11 Sur 0 -- -- 78
2020-03-27 21:00:00 0.3 6 Sudeste 8 Sudeste 0 -- -- 80
2020-03-27 20:00:00 4.1 6 Noroeste 14 Noroeste 0 -- -- 64
2020-03-27 19:00:00 6.6 9 Norte 22 Norte 0 -- -- 54
2020-03-27 18:00:00 8.4 13 Norte 27 Norte 0 -- -- 51
2020-03-27 17:00:00 8.7 17 Norte 27 Norte 0 -- -- 51
2020-03-27 16:00:00 8.3 15 Norte 28 Norte 0 -- -- 51
2020-03-27 15:00:00 8.1 17 Norte 32 Norte 0 -- -- 55
2020-03-27 14:00:00 7.7 15 Noroeste 27 Noroeste 0 -- -- 57
2020-03-27 13:00:00 5.8 16 Norte 30 Norte 0 -- -- 64
2020-03-27 12:00:00 6 7 Norte 15 Noroeste 0 -- -- 64
2020-03-27 11:00:00 5.3 4 Noroeste 14 Norte 0 -- -- 64
2020-03-27 10:00:00 1.4 8 Norte 17 Norte 0 -- -- 79
2020-03-27 09:00:00 0.1 6 Noroeste 11 Norte 0 -- -- 82
2020-03-27 08:00:00 -0.4 3 Norte 4 Norte 0 -- -- 82
2020-03-27 07:00:00 -1.2 0 Calma 5 Noroeste 0 -- -- 84
2020-03-27 06:00:00 -1.5 0 Calma 5 Sur 0 -- -- 83
2020-03-27 05:00:00 -2.8 3 Sudeste 5 Este 0 -- -- 89
2020-03-27 04:00:00 -1.5 0 Calma 4 Norte 0 -- -- 79
2020-03-27 03:00:00 -1.1 0 Calma 6 Nordeste 0 -- -- 79
2020-03-27 02:00:00 -1.6 0 Calma 6 Oeste 0 -- -- 82
2020-03-27 01:00:00 -1.4 5 Noroeste 17 Nordeste 0 -- -- 80
2020-03-27 00:00:00 -0.4 11 Nordeste 25 Nordeste 0 -- -- 73
2020-03-26 23:00:00 0.5 13 Nordeste 35 Norte 0 -- -- 68
2020-03-26 22:00:00 0.7 15 Nordeste 25 Nordeste 0 -- -- 66
2020-03-26 21:00:00 1.2 12 Norte 25 Norte 0 -- -- 65
2020-03-26 20:00:00 2.5 16 Norte 29 Norte 0 -- -- 61
2020-03-26 19:00:00 4.6 17 Norte 29 Norte 0 -- -- 52
2020-03-26 18:00:00 6.4 19 Norte 29 Norte 0 -- -- 47
2020-03-26 17:00:00 6.9 21 Norte 35 Norte 0 -- -- 47
2020-03-26 16:00:00 6.9 26 Norte 39 Norte 0 -- -- 43
2020-03-26 15:00:00 7.3 26 Norte 44 Noroeste 0 -- -- 45
2020-03-26 14:00:00 6.1 28 Noroeste 68 Norte 0 -- -- 55
2020-03-26 13:00:00 4.6 30 Norte 48 Noroeste 0 -- -- 56
2020-03-26 12:00:00 4.4 24 Norte 46 Noroeste 0 -- -- 63
2020-03-26 11:00:00 4.1 19 Noroeste 35 Norte 0 -- -- 65
2020-03-26 10:00:00 3.6 20 Norte 35 Noroeste 0 -- -- 72
2020-03-26 09:00:00 3.4 19 Noroeste 33 Noroeste 0 -- -- 73
2020-03-26 08:00:00 3 18 Noroeste 30 Noroeste 0 -- -- 77
2020-03-26 07:00:00 2.6 18 Noroeste 27 Noroeste 0 -- -- 79
2020-03-26 06:00:00 1.8 8 Oeste 13 Oeste 0 -- -- 79
2020-03-26 05:00:00 1.6 4 Oeste 9 Noroeste 0 -- -- 77
2020-03-26 04:00:00 1.4 4 Sudeste 7 Sudeste 0 -- -- 77
2020-03-26 03:00:00 0.4 5 Sur 21 Norte 0 -- -- 75
2020-03-26 02:00:00 0.4 6 Norte 17 Norte 0 -- -- 86
2020-03-26 01:00:00 1.1 5 Noroeste 22 Norte 0 -- -- 87
2020-03-26 00:00:00 1.8 3 Norte 6 Norte 0 -- -- 96
2020-03-25 23:00:00 2.3 3 Este 6 Sudeste 0 -- -- 94
2020-03-25 22:00:00 2.5 4 Este 7 Este 0 -- -- 93
2020-03-25 21:00:00 4.6 6 Noroeste 11 Noroeste 0 -- -- 90
2020-03-25 20:00:00 4.4 3 Este 8 Noroeste 0 -- -- 82
2020-03-25 19:00:00 9.1 6 Norte 16 Norte 0 -- -- 60
2020-03-25 18:00:00 10.7 9 Norte 20 Norte 0 -- -- 53
2020-03-25 17:00:00 10.9 11 Norte 22 Nordeste 0 -- -- 51
2020-03-25 16:00:00 10.3 13 Norte 26 Nordeste 0 -- -- 56
2020-03-25 15:00:00 8.8 15 Norte 28 Nordeste 0 -- -- 64
2020-03-25 14:00:00 9.5 13 Norte 27 Nordeste 0 -- -- 65
2020-03-25 13:00:00 9.3 12 Norte 22 Norte 0 -- -- 65
2020-03-25 12:00:00 8.5 9 Norte 19 Norte 0 -- -- 71
2020-03-25 11:00:00 9.2 4 Norte 9 Noroeste 0 -- -- 77
2020-03-25 10:00:00 4.8 4 Norte 15 Norte 0 -- -- 96
2020-03-25 09:00:00 3.7 8 Norte 12 Norte 0 -- -- 97
2020-03-25 08:00:00 3.6 5 Norte 8 Noroeste 0 -- -- 97
2020-03-25 07:00:00 3.6 3 Norte 5 Noroeste 0 -- -- 96
2020-03-25 06:00:00 3.9 3 Noroeste 8 Noroeste 0 -- -- 96
2020-03-25 05:00:00 4.5 4 Norte 5 Norte 0 -- -- 93
2020-03-25 04:00:00 5.4 3 Sudoeste 5 Oeste 0 -- -- 90
2020-03-25 03:00:00 5.1 2 Norte 8 Nordeste 0 -- -- 88
2020-03-25 02:00:00 5.6 4 Sur 8 Sudeste 0 -- -- 85
2020-03-25 01:00:00 5.5 2 Sur 12 Este 0 -- -- 84
2020-03-25 00:00:00 4.9 4 Sur 7 Sudeste 0 -- -- 86
2020-03-24 23:00:00 4.9 4 Sudeste 10 Sudeste 0 -- -- 86
2020-03-24 22:00:00 4.3 3 Sur 15 Sudeste 0 -- -- 87
2020-03-24 21:00:00 4.9 5 Sudeste 9 Sudeste 0 -- -- 87
2020-03-24 20:00:00 4.4 4 Sudeste 10 Norte 0 -- -- 84
2020-03-24 19:00:00 8.8 7 Norte 13 Norte 0 -- -- 66
2020-03-24 18:00:00 9.6 8 Norte 16 Norte 0 -- -- 58
2020-03-24 17:00:00 9.7 13 Norte 23 Nordeste 0 -- -- 62
2020-03-24 16:00:00 9.5 14 Norte 29 Norte 0 -- -- 69
2020-03-24 15:00:00 9.5 17 Norte 28 Norte 0 -- -- 66
2020-03-24 14:00:00 9.5 12 Nordeste 29 Norte 0 -- -- 69
2020-03-24 13:00:00 9 16 Norte 26 Norte 0 -- -- 75
2020-03-24 12:00:00 8.6 16 Norte 30 Sudeste 0 -- -- 75
2020-03-24 11:00:00 9 19 Sudeste 38 Sudeste 0 -- -- 71
2020-03-24 10:00:00 8.1 18 Sudeste 33 Sudeste 0 -- -- 71
2020-03-24 09:00:00 7 9 Noroeste 15 Noroeste 0 -- -- 78
2020-03-24 08:00:00 5 0 Calma 6 Norte 0 -- -- 95
2020-03-24 07:00:00 4.7 4 Nordeste 18 Sudeste 0 -- -- 91
2020-03-24 06:00:00 5.7 15 Sudeste 28 Sudeste 0 -- -- 83
2020-03-24 05:00:00 6.4 15 Sudeste 25 Sudeste 0 -- -- 81
2020-03-24 04:00:00 6.3 15 Sudeste 29 Sudeste 0 -- -- 87
2020-03-24 03:00:00 6.7 12 Sudeste 27 Sudeste 0 -- -- 86
2020-03-24 02:00:00 6.9 14 Sudeste 27 Sudeste 0 -- -- 86
2020-03-24 01:00:00 6.1 4 Noroeste 14 Sudeste 0 -- -- 94
2020-03-24 00:00:00 5.9 4 Nordeste 22 Sudeste 0 -- -- 87
2020-03-23 23:00:00 7.1 6 Sudeste 26 Sudeste 0 -- -- 83
2020-03-23 22:00:00 7.2 3 Norte 17 Sudeste 0 -- -- 90
2020-03-23 21:00:00 7.8 8 Sudeste 21 Este 0 -- -- 85
2020-03-23 20:00:00 7.5 0 Calma 21 Sudeste 0 -- -- 89
2020-03-23 19:00:00 7.9 17 Sudeste 30 Este 0 -- -- 84
2020-03-23 18:00:00 9.4 12 Sudeste 32 Este 0 -- -- 74
2020-03-23 17:00:00 11.6 18 Sudeste 32 Este 0 -- -- 63
2020-03-23 16:00:00 9.4 18 Sudeste 26 Sudeste 0 -- -- 75
2020-03-23 15:00:00 8.5 17 Sudeste 35 Sudeste 0 -- -- 82
2020-03-23 14:00:00 10.5 8 Este 26 Sudeste 0 -- -- 69
2020-03-23 13:00:00 9.9 14 Este 25 Este 0 -- -- 69
2020-03-23 12:00:00 11.3 10 Este 32 Sudeste 0.2 -- -- 71
2020-03-23 11:00:00 7.2 8 Norte 16 Nordeste 0.2 -- -- 89
2020-03-23 10:00:00 6.3 10 Norte 19 Nordeste 0 -- -- 92
2020-03-23 09:00:00 6.1 6 Norte 9 Norte 0 -- -- 95
2020-03-23 08:00:00 5.3 4 Sur 10 Sudeste 0 -- -- 96
2020-03-23 07:00:00 5 2 Sudoeste 8 Sudoeste 0.2 -- -- 96
2020-03-23 06:00:00 4.9 2 Nordeste 6 Sudoeste 0.2 -- -- 96
2020-03-23 05:00:00 4.3 2 Este 8 Sudoeste 0 -- -- 95
2020-03-23 04:00:00 4.7 4 Oeste 13 Noroeste 0 -- -- 94
2020-03-23 03:00:00 4.3 6 Noroeste 10 Norte 0 -- -- 91
2020-03-23 02:00:00 4.6 2 Sudoeste 7 Noroeste 0 -- -- 88
2020-03-23 01:00:00 3.9 3 Sudeste 14 Sudeste 0 -- -- 90
2020-03-23 00:00:00 4.8 5 Sudoeste 13 Sudoeste 0 -- -- 87
2020-03-22 23:00:00 4.2 4 Este 12 Sudoeste 0 -- -- 88
2020-03-22 22:00:00 4.6 5 Sudoeste 10 Sudoeste 0 -- -- 88
2020-03-22 21:00:00 4.9 5 Sudeste 11 Este 0 -- -- 87
2020-03-22 20:00:00 6.2 0 Calma 17 Este 0 -- -- 77
2020-03-22 19:00:00 9.4 6 Este 14 Este 0 -- -- 62
2020-03-22 18:00:00 11.1 7 Nordeste 17 Norte 0 -- -- 54
2020-03-22 17:00:00 10.5 8 Nordeste 29 Nordeste 0 -- -- 57
2020-03-22 16:00:00 10 20 Nordeste 31 Norte 0 -- -- 60
2020-03-22 15:00:00 10.3 17 Nordeste 38 Nordeste 0 -- -- 63
2020-03-22 14:00:00 10.4 12 Este 30 Nordeste 0 -- -- 61
2020-03-22 13:00:00 9.7 15 Norte 28 Nordeste 0 -- -- 73
2020-03-22 12:00:00 11.2 19 Norte 27 Nordeste 0 -- -- 63
2020-03-22 11:00:00 8.8 9 Norte 14 Norte 0 -- -- 79
2020-03-22 10:00:00 9.3 5 Norte 10 Norte 0 -- -- 76
2020-03-22 09:00:00 7.6 3 Norte 8 Norte 0 -- -- 88
2020-03-22 08:00:00 5.7 0 Calma 4 Norte 0 -- -- 95
2020-03-22 07:00:00 5.5 3 Norte 9 Noroeste 0 -- -- 94
2020-03-22 06:00:00 5.6 6 Noroeste 10 Norte 0 -- -- 93
2020-03-22 05:00:00 6.1 0 Calma 7 Sudeste 0 -- -- 91
2020-03-22 04:00:00 6.3 2 Sur 5 Este 0 -- -- 89
2020-03-22 03:00:00 6.1 3 Sudeste 8 Sur 0 -- -- 84
2020-03-22 02:00:00 6.6 3 Sudoeste 15 Este 0 -- -- 81
2020-03-22 01:00:00 7 4 Sudeste 7 Este 0 -- -- 84
2020-03-22 00:00:00 7.2 5 Sudeste 15 Sudeste 0 -- -- 83
2020-03-21 23:00:00 6.8 6 Este 9 Sudeste 0 -- -- 86
2020-03-21 22:00:00 8.2 5 Sudeste 15 Sudeste 0 -- -- 80
2020-03-21 21:00:00 8.6 5 Sudeste 14 Sur 0 -- -- 77
2020-03-21 20:00:00 9.1 8 Sur 15 Sudoeste 0 -- -- 73
2020-03-21 19:00:00 9.6 8 Sudoeste 17 Sudoeste 0 -- -- 69
2020-03-21 18:00:00 10.4 10 Sudoeste 17 Oeste 0 -- -- 62
2020-03-21 17:00:00 11.8 10 Sudoeste 20 Sur 0 -- -- 56
2020-03-21 16:00:00 11.9 12 Sudoeste 23 Oeste 0 -- -- 63
2020-03-21 15:00:00 11.9 10 Sudoeste 21 Sudoeste 0 -- -- 64
2020-03-21 14:00:00 11.2 9 Sur 24 Sur 0 -- -- 59
2020-03-21 13:00:00 10.6 8 Sudoeste 20 Este 0 -- -- 62
2020-03-21 12:00:00 9.1 5 Noroeste 8 Norte 0 -- -- 77
2020-03-21 11:00:00 7.6 6 Norte 11 Norte 0 -- -- 83
2020-03-21 10:00:00 5.9 8 Noroeste 13 Norte 0 -- -- 87
2020-03-21 09:00:00 6.5 4 Noroeste 6 Noroeste 0 -- -- 79
2020-03-21 08:00:00 4.3 5 Norte 9 Norte 0 -- -- 88
2020-03-21 07:00:00 3.5 0 Calma 15 Sudeste 0 -- -- 88
2020-03-21 06:00:00 3.3 3 Sur 5 Noroeste 0 -- -- 88
2020-03-21 05:00:00 3.2 3 Sur 10 Este 0 -- -- 84
2020-03-21 04:00:00 3.5 5 Sudeste 17 Sudeste 0 -- -- 76
2020-03-21 03:00:00 4.8 10 Sur 17 Sudeste 0 -- -- 71
2020-03-21 02:00:00 5.2 5 Sudeste 32 Sudeste 0 -- -- 72
2020-03-21 01:00:00 6.1 14 Sudeste 27 Este 0 -- -- 77
2020-03-21 00:00:00 6.4 11 Sudeste 17 Sudeste 0 -- -- 84
2020-03-20 23:00:00 6.4 6 Sudeste 14 Este 0 -- -- 87
2020-03-20 22:00:00 6.9 11 Este 30 Sudeste 0 -- -- 86
2020-03-20 21:00:00 7.8 21 Sudeste 35 Sudeste 0 -- -- 85
2020-03-20 20:00:00 8.2 21 Sudeste 27 Sudeste 0 -- -- 84
2020-03-20 19:00:00 8.9 17 Sudeste 27 Sudeste 0 -- -- 79
2020-03-20 18:00:00 11.6 10 Sudeste 26 Este 0 -- -- 68
2020-03-20 17:00:00 10.9 12 Este 22 Sudeste 0 -- -- 70
2020-03-20 16:00:00 9.6 15 Sur 28 Sudeste 0 -- -- 73
2020-03-20 15:00:00 11.3 21 Sudeste 29 Sudeste 0 -- -- 68
2020-03-20 14:00:00 11.6 11 Noroeste 22 Noroeste 0 -- -- 70
2020-03-20 13:00:00 9.7 12 Norte 18 Norte 0 -- -- 73
2020-03-20 12:00:00 9.4 7 Norte 13 Norte 0 -- -- 70
2020-03-20 11:00:00 8.5 9 Norte 12 Norte 0 -- -- 69
2020-03-20 10:00:00 7.6 3 Noroeste 6 Norte 0 -- -- 70
2020-03-20 09:00:00 5 0 Calma 5 Sudeste 0 -- -- 78
2020-03-20 08:00:00 1 0 Calma 9 Este 0 -- -- 90
2020-03-20 07:00:00 0 5 Sudeste 9 Sudeste 0 -- -- 91
2020-03-20 06:00:00 0.5 4 Sudeste 12 Sudeste 0 -- -- 88
2020-03-20 05:00:00 1.3 0 Calma 8 Noroeste 0 -- -- 87
2020-03-20 04:00:00 2.2 4 Sudoeste 8 Sudoeste 0 -- -- 91
2020-03-20 03:00:00 2.8 3 Norte 11 Norte 0 -- -- 87
2020-03-20 02:00:00 5 4 Nordeste 17 Este 0 -- -- 81
2020-03-20 01:00:00 5.1 3 Norte 12 Noroeste 0 -- -- 85
2020-03-20 00:00:00 6.9 10 Este 22 Sudeste 0 -- -- 74
2020-03-19 23:00:00 6.6 6 Nordeste 17 Sudeste 0 -- -- 71
2020-03-19 22:00:00 6.3 8 Sudeste 21 Sudeste 0 -- -- 74
2020-03-19 21:00:00 7.6 17 Sudeste 27 Sudeste 0 -- -- 74
2020-03-19 20:00:00 7.6 2 Noroeste 16 Sudoeste 0 -- -- 68
2020-03-19 19:00:00 9.8 6 Sur 20 Sudeste 0 -- -- 56
2020-03-19 18:00:00 12.3 14 Sudeste 23 Sudeste 0 -- -- 53
2020-03-19 17:00:00 12.8 15 Sudeste 25 Sudeste 0 -- -- 48
2020-03-19 16:00:00 13.2 15 Sudeste 31 Sudeste 0 -- -- 42
2020-03-19 15:00:00 13.2 17 Sudeste 25 Este 0 -- -- 38
2020-03-19 14:00:00 12.8 19 Sudeste 27 Sudeste 0 -- -- 46
2020-03-19 13:00:00 11.7 19 Sudeste 28 Este 0 -- -- 57
2020-03-19 12:00:00 13.4 17 Sudeste 32 Sudeste 0 -- -- 50
2020-03-19 11:00:00 12.3 19 Sudeste 39 Sudeste 0 -- -- 57
2020-03-19 10:00:00 10.3 18 Sudeste 36 Sudeste 0 -- -- 63
2020-03-19 09:00:00 9.3 21 Sudeste 30 Sudeste 0 -- -- 64
2020-03-19 08:00:00 6 3 Sur 18 Sur 0 -- -- 64
2020-03-19 07:00:00 4.7 3 Sudoeste 10 Sur 0 -- -- 69
2020-03-19 06:00:00 6.8 7 Sur 15 Sur 0 -- -- 61
2020-03-19 05:00:00 7 14 Sudeste 17 Sudeste 0 -- -- 64
2020-03-19 04:00:00 5.5 5 Sudeste 17 Sudeste 0 -- -- 73
2020-03-19 03:00:00 6.4 11 Sudeste 23 Sudeste 0 -- -- 74
2020-03-19 02:00:00 6.6 19 Sudeste 22 Sudeste 0 -- -- 96
2020-03-19 01:00:00 4.4 2 Sudeste 6 Sudeste 0 -- -- 98
2020-03-19 00:00:00 5.3 3 Sudeste 7 Sudeste 0 -- -- 97
2020-03-18 23:00:00 5.8 3 Sudeste 8 Sudeste 0 -- -- 97
2020-03-18 22:00:00 6.9 6 Sudeste 8 Sudeste 0 -- -- 96
2020-03-18 21:00:00 7.6 3 Sur 6 Sudoeste 0 -- -- 91
2020-03-18 20:00:00 8.5 3 Sur 7 Sudoeste 0 -- -- 93
2020-03-18 19:00:00 10.2 4 Oeste 9 Oeste 0 -- -- 92
2020-03-18 18:00:00 11.9 8 Sudoeste 13 Nordeste 0 -- -- 87
2020-03-18 17:00:00 12.8 11 Noroeste 19 Noroeste 0 -- -- 74
2020-03-18 16:00:00 13.5 12 Norte 16 Norte 0 -- -- 79
2020-03-18 15:00:00 14.4 9 Norte 13 Norte 0 -- -- 70
2020-03-18 14:00:00 13.9 5 Noroeste 12 Noroeste 0 -- -- 64
2020-03-18 13:00:00 13.2 9 Noroeste 14 Norte 0 -- -- 66
2020-03-18 12:00:00 13.2 4 Norte 8 Noroeste 0 -- -- 62
2020-03-18 11:00:00 11 2 Oeste 8 Oeste 0 -- -- 83
2020-03-18 10:00:00 8 5 Sudoeste 9 Noroeste 0 -- -- 94
2020-03-18 09:00:00 5.6 3 Oeste 6 Oeste 0 -- -- 98
2020-03-18 08:00:00 2.6 3 Sur 8 Sudeste 0 -- -- 99
2020-03-18 07:00:00 2.5 7 Sudeste 10 Sudeste 0 -- -- 100
2020-03-18 06:00:00 2.6 4 Sur 7 Sudeste 0 -- -- 99
2020-03-18 05:00:00 3.3 5 Sur 13 Sudeste 0 -- -- 99
2020-03-18 04:00:00 3.2 5 Sur 10 Sudeste 0 -- -- 100
2020-03-18 03:00:00 2.9 3 Sur 10 Este 0 -- -- 99
2020-03-18 02:00:00 3.6 6 Este 9 Sudeste 0 -- -- 99
2020-03-18 01:00:00 4.8 7 Sudoeste 15 Nordeste 0 -- -- 99
2020-03-18 00:00:00 4.5 6 Sudeste 13 Este 0 -- -- 98
2020-03-17 23:00:00 5.3 4 Noroeste 27 Sudeste 0 -- -- 99
2020-03-17 22:00:00 5.4 6 Nordeste 10 Norte 0 -- -- 99
2020-03-17 21:00:00 6.1 3 Norte 13 Noroeste 0 -- -- 98
2020-03-17 20:00:00 6 7 Noroeste 15 Noroeste 0 -- -- 99
2020-03-17 19:00:00 6.3 8 Norte 24 Este 0 -- -- 98
2020-03-17 18:00:00 6.4 4 Noroeste 13 Noroeste 0 -- -- 98
2020-03-17 17:00:00 5.7 7 Oeste 13 Oeste 0 -- -- 98
2020-03-17 16:00:00 5.6 6 Noroeste 12 Noroeste 0.2 -- -- 98
2020-03-17 15:00:00 5.5 4 Noroeste 14 Noroeste 0 -- -- 98
2020-03-17 14:00:00 5.3 7 Oeste 13 Noroeste 0 -- -- 97
2020-03-17 13:00:00 5.3 10 Norte 23 Norte 0 -- -- 98
2020-03-17 12:00:00 5.7 4 Noroeste 12 Norte 0.2 -- -- 98
2020-03-17 11:00:00 4.5 4 Oeste 15 Norte 0 -- -- 97
2020-03-17 10:00:00 4.2 6 Noroeste 13 Norte 0.2 -- -- 98
2020-03-17 09:00:00 3.9 7 Noroeste 24 Norte 0.4 -- -- 98
2020-03-17 08:00:00 3.8 7 Oeste 16 Noroeste 0 -- -- 99
2020-03-17 07:00:00 3.6 4 Oeste 21 Noroeste 0 -- -- 98
2020-03-17 06:00:00 2.9 5 Oeste 17 Oeste 0.2 -- -- 97
2020-03-17 05:00:00 3.2 11 Oeste 17 Oeste 0.2 -- -- 97
2020-03-17 04:00:00 3.5 5 Norte 15 Norte 0 -- -- 97
2020-03-17 03:00:00 3.7 5 Noroeste 15 Norte 0.2 -- -- 97
2020-03-17 02:00:00 3.7 12 Norte 21 Norte 0 -- -- 97
2020-03-17 01:00:00 3.7 6 Noroeste 19 Nordeste 0.8 -- -- 97
2020-03-17 00:00:00 3.4 11 Norte 19 Nordeste 0.2 -- -- 97
2020-03-16 23:00:00 3.3 15 Norte 25 Nordeste 2 -- -- 96
2020-03-16 22:00:00 3.1 12 Norte 28 Norte 0.2 -- -- 97
2020-03-16 21:00:00 3.2 13 Norte 24 Nordeste 1.6 -- -- 97
2020-03-16 20:00:00 2.8 5 Norte 30 Nordeste 1.6 -- -- 97
2020-03-16 19:00:00 2.5 14 Norte 27 Norte 2.4 -- -- 97
2020-03-16 18:00:00 2.4 12 Nordeste 35 Norte 1.6 -- -- 96
2020-03-16 17:00:00 2.1 12 Norte 35 Norte 1.2 -- -- 96
2020-03-16 16:00:00 1.7 12 Norte 22 Nordeste 0.8 -- -- 95
2020-03-16 15:00:00 2 5 Norte 21 Noroeste 1.2 -- -- 93
2020-03-16 14:00:00 1.2 11 Nordeste 17 Nordeste 3 -- -- 94
2020-03-16 13:00:00 1.2 0 Calma 2 Nordeste 4.6 -- -- 94
2020-03-16 12:00:00 2.2 0 Calma 4 Norte 5.8 -- -- 95
2020-03-16 11:00:00 0.2 3 Norte 12 Norte 4.2 -- -- 98
2020-03-16 10:00:00 0.1 7 Nordeste 11 Norte 2.6 -- -- 97
2020-03-16 09:00:00 0.1 5 Norte 10 Norte 5.4 -- -- 97
2020-03-16 08:00:00 -0.1 3 Norte 9 Norte 2 -- -- 97
2020-03-16 07:00:00 0 5 Norte 13 Noroeste 2.6 -- -- 97
2020-03-16 06:00:00 -0.1 8 Noroeste 15 Noroeste 1.8 -- -- 96
2020-03-16 05:00:00 0.7 12 Noroeste 27 Noroeste 6.6 -- -- 94
2020-03-16 04:00:00 3.3 14 Norte 29 Norte 5.8 -- -- 95
2020-03-16 03:00:00 4.7 13 Nordeste 29 Sudeste 4 -- -- 93
2020-03-16 02:00:00 7 22 Sudeste 36 Sudeste 0.2 -- -- 86
2020-03-16 01:00:00 6.9 14 Sudeste 37 Sudeste 0 -- -- 86
2020-03-16 00:00:00 7 23 Sur 35 Sudeste 1.8 -- -- 84
2020-03-15 23:00:00 6.2 17 Sudeste 40 Sur 8.8 -- -- 91
2020-03-15 22:00:00 8.4 9 Sudoeste 27 Sur 1 -- -- 84
2020-03-15 21:00:00 8.6 6 Sur 37 Oeste 0.4 -- -- 82
2020-03-15 20:00:00 12.1 20 Sur 42 Sur 0 -- -- 64
2020-03-15 19:00:00 12.3 26 Sudeste 40 Sudeste 0 -- -- 67
2020-03-15 18:00:00 13.6 27 Sudeste 49 Sur 0 -- -- 66
2020-03-15 17:00:00 15.5 17 Sudeste 39 Sudeste 0 -- -- 59
2020-03-15 16:00:00 16.2 22 Sudeste 38 Sudeste 0 -- -- 57
2020-03-15 15:00:00 15.9 14 Sur 43 Sur 0 -- -- 55
2020-03-15 14:00:00 16.2 21 Sur 38 Sur 0 -- -- 55
2020-03-15 13:00:00 14.8 18 Sur 42 Sur 0 -- -- 60
2020-03-15 12:00:00 14.7 19 Sur 40 Sur 0 -- -- 61
2020-03-15 11:00:00 14.6 19 Sur 41 Sur 0 -- -- 60
2020-03-15 10:00:00 13.3 19 Sur 40 Sur 0 -- -- 62
2020-03-15 09:00:00 11.8 22 Sudeste 37 Sur 0 -- -- 63
2020-03-15 08:00:00 8.5 18 Sudeste 32 Sudeste 0 -- -- 62
2020-03-15 07:00:00 7.5 17 Sudeste 22 Sudeste 0 -- -- 53
2020-03-15 06:00:00 8.1 14 Sudeste 30 Sudeste 0 -- -- 41
2020-03-15 05:00:00 9.3 19 Sudeste 27 Sudeste 0 -- -- 35
2020-03-15 04:00:00 8.4 11 Sudeste 24 Sudeste 0 -- -- 40
2020-03-15 03:00:00 8.1 15 Sudeste 25 Sudeste 0 -- -- 47
2020-03-15 02:00:00 8.6 15 Sudeste 23 Sudeste 0 -- -- 48
2020-03-15 01:00:00 4 5 Sudeste 9 Sudeste 0 -- -- 68
2020-03-15 00:00:00 3.6 3 Sur 8 Sudeste 0 -- -- 69
2020-03-14 23:00:00 5.8 4 Norte 18 Sudeste 0 -- -- 61
2020-03-14 22:00:00 6.4 9 Sudeste 17 Sudeste 0 -- -- 57
2020-03-14 21:00:00 4.8 0 Calma 9 Sudeste 0 -- -- 63
2020-03-14 20:00:00 6.6 2 Sur 7 Sudoeste 0 -- -- 61
2020-03-14 19:00:00 11.2 5 Norte 16 Norte 0 -- -- 44
2020-03-14 18:00:00 13.8 10 Norte 20 Norte 0 -- -- 37
2020-03-14 17:00:00 14.5 12 Norte 20 Norte 0 -- -- 36
2020-03-14 16:00:00 15.1 10 Noroeste 21 Noroeste 0 -- -- 33
2020-03-14 15:00:00 14.5 12 Norte 23 Noroeste 0 -- -- 32
2020-03-14 14:00:00 14.3 11 Noroeste 21 Norte 0 -- -- 28
2020-03-14 13:00:00 14.2 9 Norte 23 Norte 0 -- -- 23
2020-03-14 12:00:00 13 10 Noroeste 17 Noroeste 0 -- -- 22
2020-03-14 11:00:00 12.4 8 Norte 14 Norte 0 -- -- 19
2020-03-14 10:00:00 12.5 3 Norte 7 Norte 0 -- -- 30
2020-03-14 09:00:00 10.3 0 Calma 9 Sudeste 0 -- -- 47
2020-03-14 08:00:00 1.2 9 Sudeste 13 Sudeste 0 -- -- 74
2020-03-14 07:00:00 0.1 4 Sur 11 Sudeste 0 -- -- 82
2020-03-14 06:00:00 0.7 4 Sur 10 Sudeste 0 -- -- 95
2020-03-14 05:00:00 0.8 3 Sudeste 9 Sudoeste 0 -- -- 95
2020-03-14 04:00:00 2.1 2 Oeste 12 Sudeste 0 -- -- 95
2020-03-14 03:00:00 3 10 Sudeste 13 Sudeste 0 -- -- 95
2020-03-14 02:00:00 3.7 6 Sur 15 Sudeste 0 -- -- 92
2020-03-14 01:00:00 3.1 8 Sudeste 10 Sudeste 0 -- -- 93
2020-03-14 00:00:00 3.6 6 Sur 8 Sur 0 -- -- 93
2020-03-13 23:00:00 3.9 4 Sudeste 9 Sur 0 -- -- 90
2020-03-13 22:00:00 5 4 Sudeste 8 Sudeste 0 -- -- 87
2020-03-13 21:00:00 6.6 2 Norte 13 Nordeste 0 -- -- 83
2020-03-13 20:00:00 7 7 Norte 17 Nordeste 0 -- -- 82
2020-03-13 19:00:00 7.6 10 Norte 22 Norte 0 -- -- 79
2020-03-13 18:00:00 9.7 13 Norte 24 Norte 0 -- -- 71
2020-03-13 17:00:00 10.3 17 Norte 27 Norte 0 -- -- 70
2020-03-13 16:00:00 12 18 Norte 27 Norte 0 -- -- 63
2020-03-13 15:00:00 12.4 15 Norte 27 Norte 0 -- -- 62
2020-03-13 14:00:00 12.4 13 Norte 25 Norte 0 -- -- 62
2020-03-13 13:00:00 11.7 13 Norte 21 Norte 0 -- -- 63
2020-03-13 12:00:00 9.9 13 Norte 21 Noroeste 0 -- -- 72
2020-03-13 11:00:00 8.8 9 Norte 23 Norte 0 -- -- 79
2020-03-13 10:00:00 7.9 12 Norte 22 Nordeste 0 -- -- 80
2020-03-13 09:00:00 6.6 13 Norte 22 Norte 0 -- -- 85
2020-03-13 08:00:00 6.3 13 Norte 20 Norte 0 -- -- 88
2020-03-13 07:00:00 6.4 12 Norte 20 Norte 0 -- -- 88
2020-03-13 06:00:00 6.7 9 Norte 20 Norte 0 -- -- 89
2020-03-13 05:00:00 7 8 Norte 19 Nordeste 0 -- -- 88
2020-03-13 04:00:00 7.2 7 Nordeste 21 Nordeste 0 -- -- 88
2020-03-13 03:00:00 7.4 13 Nordeste 21 Nordeste 0 -- -- 88
2020-03-13 02:00:00 7.7 10 Nordeste 20 Norte 0 -- -- 87
2020-03-13 01:00:00 7.7 9 Norte 22 Norte 0 -- -- 91
2020-03-13 00:00:00 7.8 11 Nordeste 19 Nordeste 0 -- -- 92
2020-03-12 23:00:00 8.1 10 Nordeste 20 Nordeste 0 -- -- 92
2020-03-12 22:00:00 8.5 12 Nordeste 20 Norte 0 -- -- 91
2020-03-12 21:00:00 9.4 10 Norte 17 Norte 0 -- -- 88
2020-03-12 20:00:00 10.2 6 Norte 19 Norte 0 -- -- 85
2020-03-12 19:00:00 11.5 12 Norte 24 Norte 0 -- -- 80
2020-03-12 18:00:00 13.7 11 Norte 24 Norte 0 -- -- 71
2020-03-12 17:00:00 16.5 11 Noroeste 33 Norte 0 -- -- 61
2020-03-12 16:00:00 19.4 10 Norte 40 Sudoeste 0 -- -- 51
2020-03-12 15:00:00 23.6 10 Oeste 32 Oeste 0 -- -- 41
2020-03-12 14:00:00 24.1 13 Sudoeste 30 Sur 0 -- -- 36
2020-03-12 13:00:00 23.2 13 Sudoeste 31 Sudoeste 0 -- -- 38
2020-03-12 12:00:00 21.7 18 Sur 36 Sur 0 -- -- 39
2020-03-12 11:00:00 20.5 17 Sur 33 Sur 0 -- -- 41
2020-03-12 10:00:00 18.3 19 Sur 39 Sudoeste 0 -- -- 44
2020-03-12 09:00:00 17.5 17 Sur 30 Sudoeste 0 -- -- 46
2020-03-12 08:00:00 15.4 7 Sur 19 Sudoeste 0 -- -- 51
2020-03-12 07:00:00 13.1 9 Este 24 Este 0 -- -- 60
2020-03-12 06:00:00 12.5 13 Sudeste 22 Este 0 -- -- 59
2020-03-12 05:00:00 13.2 16 Este 24 Este 0 -- -- 55
2020-03-12 04:00:00 11.4 15 Sudeste 21 Sudeste 0 -- -- 61
2020-03-12 03:00:00 11.4 17 Sudeste 26 Sudeste 0 -- -- 61
2020-03-12 02:00:00 11.4 5 Sur 15 Sudeste 0 -- -- 59
2020-03-12 01:00:00 11.4 4 Sur 13 Sudeste 0 -- -- 59
2020-03-12 00:00:00 11.7 9 Sudeste 17 Sudeste 0 -- -- 59
2020-03-11 23:00:00 12.6 10 Sudeste 20 Sudeste 0 -- -- 56
2020-03-11 22:00:00 12.9 11 Sudeste 17 Sudeste 0 -- -- 53
2020-03-11 21:00:00 15.6 9 Sudoeste 14 Sudoeste 0 -- -- 46
2020-03-11 20:00:00 16.4 9 Sudoeste 20 Sudoeste 0 -- -- 44
2020-03-11 19:00:00 18.8 14 Sudoeste 23 Sudoeste 0 -- -- 37
2020-03-11 18:00:00 22.1 14 Sudoeste 36 Oeste 0 -- -- 32
2020-03-11 17:00:00 23.7 17 Sudoeste 32 Sudoeste 0 -- -- 26
2020-03-11 16:00:00 23.5 16 Sudoeste 37 Sudoeste 0 -- -- 26
2020-03-11 15:00:00 22.5 16 Sur 36 Sudoeste 0 -- -- 27
2020-03-11 14:00:00 21.8 12 Sudoeste 27 Sudoeste 0 -- -- 26
2020-03-11 13:00:00 20.6 9 Sudoeste 21 Oeste 0 -- -- 28
2020-03-11 12:00:00 18.8 9 Sudoeste 22 Sudoeste 0 -- -- 30
2020-03-11 11:00:00 19.6 8 Oeste 12 Oeste 0 -- -- 28
2020-03-11 10:00:00 17.8 2 Norte 10 Sudeste 0 -- -- 37
2020-03-11 09:00:00 12.8 6 Sudeste 9 Sudeste 0 -- -- 55
2020-03-11 08:00:00 6.5 5 Sudeste 10 Sudeste 0 -- -- 66
2020-03-11 07:00:00 6.2 6 Sur 14 Sudeste 0 -- -- 68
2020-03-11 06:00:00 4.2 7 Sudeste 10 Sudeste 0 -- -- 84
2020-03-11 05:00:00 6.5 7 Sudeste 17 Sudeste 0 -- -- 73
2020-03-11 04:00:00 7.8 8 Sudeste 15 Sudeste 0 -- -- 72
2020-03-11 03:00:00 8 8 Sudeste 15 Sudeste 0 -- -- 74
2020-03-11 02:00:00 9 12 Sudeste 17 Sudeste 0 -- -- 72
2020-03-11 01:00:00 8.1 6 Sudeste 14 Sudeste 0 -- -- 75
2020-03-11 00:00:00 8.6 9 Sudeste 15 Sudeste 0 -- -- 74
2020-03-10 23:00:00 8.7 9 Sudeste 14 Sur 0 -- -- 76
2020-03-10 22:00:00 7.7 5 Sur 10 Sudeste 0 -- -- 80
2020-03-10 21:00:00 9.7 3 Sur 10 Este 0 -- -- 72
2020-03-10 20:00:00 10.5 7 Sudeste 9 Sudeste 0 -- -- 71
2020-03-10 19:00:00 13.8 3 Sudoeste 11 Noroeste 0 -- -- 58
2020-03-10 18:00:00 16.9 9 Oeste 34 Sudoeste 0 -- -- 49
2020-03-10 17:00:00 18.1 18 Sudoeste 35 Sudoeste 0 -- -- 46
2020-03-10 16:00:00 18.9 17 Sudoeste 31 Sudoeste 0 -- -- 45
2020-03-10 15:00:00 19.4 14 Sudoeste 27 Sur 0 -- -- 43
2020-03-10 14:00:00 20 8 Oeste 18 Sudoeste 0 -- -- 40
2020-03-10 13:00:00 17.2 12 Sudoeste 18 Sudoeste 0 -- -- 46
2020-03-10 12:00:00 18.2 7 Oeste 15 Sudoeste 0 -- -- 36
2020-03-10 11:00:00 15.6 5 Oeste 15 Sudoeste 0 -- -- 39
2020-03-10 10:00:00 11.8 2 Este 8 Este 0 -- -- 49
2020-03-10 09:00:00 6.9 3 Sur 9 Sudeste 0 -- -- 64
2020-03-10 08:00:00 4.8 6 Sudeste 8 Sudeste 0 -- -- 68
2020-03-10 07:00:00 4.3 4 Sudeste 9 Sudeste 0 -- -- 66
2020-03-10 06:00:00 2.2 6 Sudeste 8 Sur 0 -- -- 79
2020-03-10 05:00:00 1.6 5 Sudeste 9 Sudeste 0 -- -- 78
2020-03-10 04:00:00 1.4 4 Sudeste 10 Sudeste 0 -- -- 80
2020-03-10 03:00:00 1 4 Sur 6 Sur 0 -- -- 83
2020-03-10 02:00:00 1.6 4 Sur 10 Sudeste 0 -- -- 82
2020-03-10 01:00:00 1.3 4 Sur 8 Sudeste 0 -- -- 86
2020-03-10 00:00:00 2.9 4 Noroeste 8 Sur 0 -- -- 81
2020-03-09 23:00:00 3.7 3 Noroeste 19 Noroeste 0 -- -- 80
2020-03-09 22:00:00 4.4 10 Norte 21 Noroeste 0 -- -- 78
2020-03-09 21:00:00 5.2 15 Norte 30 Noroeste 0 -- -- 77
2020-03-09 20:00:00 6.1 21 Noroeste 32 Noroeste 0 -- -- 67
2020-03-09 19:00:00 7.1 16 Noroeste 37 Noroeste 0 -- -- 59
2020-03-09 18:00:00 8.4 22 Norte 37 Noroeste 0 -- -- 55
2020-03-09 17:00:00 9.9 24 Noroeste 38 Norte 0 -- -- 51
2020-03-09 16:00:00 10.4 23 Norte 39 Norte 0 -- -- 50
2020-03-09 15:00:00 9.7 19 Norte 32 Noroeste 0 -- -- 52
2020-03-09 14:00:00 9.6 22 Norte 49 Norte 0 -- -- 51
2020-03-09 13:00:00 10 26 Noroeste 46 Noroeste 0 -- -- 52
2020-03-09 12:00:00 8.8 31 Noroeste 48 Noroeste 0 -- -- 53
2020-03-09 11:00:00 8.6 28 Noroeste 38 Noroeste 0 -- -- 54
2020-03-09 10:00:00 6.9 21 Noroeste 32 Noroeste 0 -- -- 60
2020-03-09 09:00:00 6 11 Noroeste 23 Oeste 0 -- -- 70
2020-03-09 08:00:00 3.8 10 Noroeste 18 Noroeste 0 -- -- 81
2020-03-09 07:00:00 4.4 13 Noroeste 21 Noroeste 0 -- -- 80
2020-03-09 06:00:00 4.8 10 Norte 27 Noroeste 0 -- -- 85
2020-03-09 05:00:00 4.8 14 Noroeste 30 Norte 0 -- -- 86
2020-03-09 04:00:00 5.1 7 Norte 12 Norte 0 -- -- 95
2020-03-09 03:00:00 5 5 Norte 16 Norte 0 -- -- 95
2020-03-09 02:00:00 5 4 Oeste 9 Norte 0 -- -- 94
2020-03-09 01:00:00 4.9 6 Noroeste 25 Oeste 0 -- -- 90
2020-03-09 00:00:00 6.9 13 Oeste 30 Sudoeste 0 -- -- 76
2020-03-08 23:00:00 7.6 14 Oeste 42 Oeste 0 -- -- 71
2020-03-08 22:00:00 7.7 15 Oeste 32 Oeste 0 -- -- 72
2020-03-08 21:00:00 8.8 18 Oeste 38 Sudoeste 0 -- -- 71
2020-03-08 20:00:00 9.7 20 Oeste 41 Oeste 0 -- -- 68
2020-03-08 19:00:00 10.7 21 Oeste 41 Sudoeste 0 -- -- 65
2020-03-08 18:00:00 12.2 22 Sudoeste 36 Sudoeste 0 -- -- 59
2020-03-08 17:00:00 12.5 14 Oeste 27 Sudoeste 0 -- -- 54
2020-03-08 16:00:00 13.6 17 Sudoeste 33 Sudoeste 0 -- -- 55
2020-03-08 15:00:00 14.2 13 Sudoeste 28 Sur 0 -- -- 41
2020-03-08 14:00:00 14.3 15 Sudoeste 26 Sudoeste 0 -- -- 51
2020-03-08 13:00:00 12.8 10 Sur 25 Sudoeste 0 -- -- 50
2020-03-08 12:00:00 11.5 14 Sudoeste 29 Sudoeste 0 -- -- 58
2020-03-08 11:00:00 10.6 13 Sudoeste 35 Sudoeste 0 -- -- 59
2020-03-08 10:00:00 9 8 Sur 32 Sudoeste 0 -- -- 64
2020-03-08 09:00:00 7.4 8 Sudeste 23 Sudoeste 0 -- -- 69
2020-03-08 08:00:00 2.8 4 Este 24 Sudoeste 0 -- -- 84
2020-03-08 07:00:00 2.1 8 Este 18 Este 0 -- -- 82
2020-03-08 06:00:00 2.4 8 Sudeste 17 Sudeste 0 -- -- 82
2020-03-08 05:00:00 3.1 14 Sudeste 22 Sudeste 0 -- -- 80
2020-03-08 04:00:00 2.4 12 Sudeste 18 Este 0 -- -- 82
2020-03-08 03:00:00 2.7 6 Sur 22 Sur 0 -- -- 81
2020-03-08 02:00:00 1.8 11 Sudeste 17 Este 0 -- -- 87
2020-03-08 01:00:00 2.5 9 Sudeste 18 Sudeste 0 -- -- 85
2020-03-08 00:00:00 2.6 9 Sur 15 Sudeste 0 -- -- 89
2020-03-07 23:00:00 1.9 12 Sudeste 15 Sur 0 -- -- 91
2020-03-07 22:00:00 2.4 4 Sur 11 Noroeste 0 -- -- 87
2020-03-07 21:00:00 4.1 4 Noroeste 22 Nordeste 0 -- -- 84
2020-03-07 20:00:00 4.9 12 Norte 18 Nordeste 0 -- -- 83
2020-03-07 19:00:00 6.2 8 Norte 23 Norte 0 -- -- 78
2020-03-07 18:00:00 7.4 12 Norte 29 Norte 0 -- -- 73
2020-03-07 17:00:00 7.8 19 Norte 40 Norte 0 -- -- 70
2020-03-07 16:00:00 7.9 25 Norte 40 Norte 0 -- -- 70
2020-03-07 15:00:00 7.6 22 Noroeste 38 Noroeste 0 -- -- 71
2020-03-07 14:00:00 7.4 23 Noroeste 42 Noroeste 0 -- -- 71
2020-03-07 13:00:00 7 25 Noroeste 42 Noroeste 0 -- -- 75
2020-03-07 12:00:00 6.8 26 Noroeste 39 Noroeste 0 -- -- 74
2020-03-07 11:00:00 5.9 24 Noroeste 39 Noroeste 0 -- -- 78
2020-03-07 10:00:00 5.2 24 Noroeste 39 Norte 0 -- -- 79
2020-03-07 09:00:00 4.4 24 Norte 39 Noroeste 0 -- -- 80
2020-03-07 08:00:00 3.4 15 Noroeste 27 Norte 0 -- -- 83
2020-03-07 07:00:00 2.9 10 Norte 24 Noroeste 0 -- -- 81
2020-03-07 06:00:00 2.4 8 Noroeste 18 Oeste 0 -- -- 80
2020-03-07 05:00:00 1.7 0 Calma 28 Noroeste 0 -- -- 76
2020-03-07 04:00:00 2 18 Noroeste 34 Noroeste 0 -- -- 71
2020-03-07 03:00:00 2.3 15 Noroeste 31 Noroeste 0 -- -- 76
2020-03-07 02:00:00 2 6 Noroeste 25 Noroeste 0 -- -- 78
2020-03-07 01:00:00 1.6 7 Noroeste 15 Noroeste 0 -- -- 80
2020-03-07 00:00:00 1.5 5 Noroeste 18 Noroeste 0 -- -- 80
2020-03-06 23:00:00 1.2 12 Norte 42 Noroeste 0 -- -- 77
2020-03-06 22:00:00 1.6 20 Noroeste 35 Noroeste 0 -- -- 73
2020-03-06 21:00:00 1.5 20 Noroeste 36 Noroeste 0 -- -- 73
2020-03-06 20:00:00 1.5 22 Noroeste 49 Noroeste 0 -- -- 80
2020-03-06 19:00:00 1.6 18 Noroeste 53 Noroeste 0 -- -- 80
2020-03-06 18:00:00 3.8 26 Noroeste 69 Noroeste 0 -- -- 61
2020-03-06 17:00:00 3.8 24 Noroeste 55 Noroeste 0 -- -- 69
2020-03-06 16:00:00 4.5 27 Noroeste 59 Noroeste 0 -- -- 60
2020-03-06 15:00:00 4.6 34 Noroeste 57 Noroeste 0 -- -- 62
2020-03-06 14:00:00 5.2 31 Noroeste 57 Noroeste 0 -- -- 61
2020-03-06 13:00:00 4.4 38 Noroeste 63 Noroeste 0 -- -- 66
2020-03-06 12:00:00 4.2 33 Noroeste 54 Noroeste 0.2 -- -- 67
2020-03-06 11:00:00 2.6 13 Noroeste 40 Noroeste 0 -- -- 88
2020-03-06 10:00:00 4.1 15 Sudoeste 36 Sudoeste 0 -- -- 76
2020-03-06 09:00:00 2.5 13 Sudoeste 37 Oeste 0 -- -- 86
2020-03-06 08:00:00 2 18 Oeste 48 Oeste 0.2 -- -- 89
2020-03-06 07:00:00 2.2 26 Sudoeste 54 Sudoeste 0 -- -- 87
2020-03-06 06:00:00 2.7 25 Sudoeste 42 Sudoeste 0 -- -- 85
2020-03-06 05:00:00 2.4 20 Sudoeste 49 Sudoeste 0 -- -- 87
2020-03-06 04:00:00 2.2 26 Oeste 49 Sudoeste 0 -- -- 84
2020-03-06 03:00:00 2.7 27 Sudoeste 49 Oeste 0 -- -- 85
2020-03-06 02:00:00 2.9 18 Sudoeste 36 Sudoeste 0 -- -- 89
2020-03-06 01:00:00 2.2 6 Oeste 17 Sudoeste 0 -- -- 96
2020-03-06 00:00:00 0.7 6 Sudeste 11 Sudeste 0 -- -- 92
2020-03-05 23:00:00 2.2 5 Sur 10 Noroeste 0 -- -- 90
2020-03-05 22:00:00 3.9 6 Oeste 30 Noroeste 0 -- -- 81
2020-03-05 21:00:00 5 8 Noroeste 14 Noroeste 0 -- -- 85
2020-03-05 20:00:00 4.9 14 Noroeste 23 Norte 0.2 -- -- 85
2020-03-05 19:00:00 5.9 14 Norte 37 Noroeste 0.8 -- -- 81
2020-03-05 18:00:00 9.3 23 Oeste 42 Sudoeste 0 -- -- 62
2020-03-05 17:00:00 10.2 24 Oeste 51 Sudoeste 0 -- -- 56
2020-03-05 16:00:00 10.4 26 Oeste 53 Oeste 0 -- -- 58
2020-03-05 15:00:00 10.6 30 Oeste 58 Oeste 0 -- -- 55
2020-03-05 14:00:00 10.4 30 Oeste 72 Oeste 0 -- -- 64
2020-03-05 13:00:00 9.3 32 Oeste 65 Sudoeste 0 -- -- 69
2020-03-05 12:00:00 8.7 37 Sudoeste 69 Sudoeste 0.6 -- -- 87
2020-03-05 11:00:00 9 30 Sur 57 Sur 0.2 -- -- 90
2020-03-05 10:00:00 8.8 31 Sur 57 Sur 0 -- -- 87
2020-03-05 09:00:00 8.4 27 Sur 48 Sur 0 -- -- 85
2020-03-05 08:00:00 7.6 26 Sur 53 Sudoeste 0 -- -- 88
2020-03-05 07:00:00 7.9 24 Sur 46 Sur 0 -- -- 86
2020-03-05 06:00:00 9.2 18 Sur 45 Sur 0 -- -- 83
2020-03-05 05:00:00 9.1 35 Sudoeste 58 Sudoeste 0 -- -- 85
2020-03-05 04:00:00 9.2 14 Sur 31 Sur 0 -- -- 85
2020-03-05 03:00:00 9.1 5 Sudoeste 32 Sudoeste 0 -- -- 84
2020-03-05 02:00:00 9 15 Sudoeste 37 Sudoeste 0 -- -- 84
2020-03-05 01:00:00 8.7 18 Sudoeste 41 Sudoeste 0 -- -- 85
2020-03-05 00:00:00 9.1 12 Sudoeste 35 Sudoeste 0 -- -- 83
2020-03-04 23:00:00 9.3 18 Sudoeste 38 Sudoeste 0 -- -- 83
2020-03-04 22:00:00 9.2 10 Sudoeste 22 Sur 0 -- -- 83
2020-03-04 21:00:00 9.4 14 Sur 35 Sudoeste 0 -- -- 80
2020-03-04 20:00:00 9.4 23 Sudoeste 41 Sudoeste 0 -- -- 79
2020-03-04 19:00:00 10 16 Sudoeste 39 Sudoeste 0 -- -- 76
2020-03-04 18:00:00 11.8 21 Sudoeste 46 Sudoeste 0 -- -- 69
2020-03-04 17:00:00 13.8 25 Sudoeste 47 Sudoeste 0 -- -- 64
2020-03-04 16:00:00 14.1 25 Oeste 49 Sudoeste 0 -- -- 60
2020-03-04 15:00:00 14.3 21 Oeste 42 Sudoeste 0 -- -- 63
2020-03-04 14:00:00 13.8 26 Sudoeste 46 Sudoeste 0 -- -- 67
2020-03-04 13:00:00 13.7 24 Sudoeste 44 Sudoeste 0 -- -- 67
2020-03-04 12:00:00 11.7 27 Sudoeste 60 Oeste 0 -- -- 73
2020-03-04 11:00:00 11.1 26 Sudoeste 50 Sudoeste 0 -- -- 81
2020-03-04 10:00:00 10.9 27 Sudoeste 46 Sudoeste 0 -- -- 82
2020-03-04 09:00:00 10 28 Sudoeste 49 Sudoeste 0 -- -- 86
2020-03-04 08:00:00 9.6 28 Sudoeste 51 Sudoeste 0 -- -- 88
2020-03-04 07:00:00 8.5 18 Sudoeste 52 Sudoeste 0 -- -- 90
2020-03-04 06:00:00 9.1 15 Oeste 37 Oeste 0 -- -- 84
2020-03-04 05:00:00 8.8 12 Oeste 44 Sudoeste 0 -- -- 74
2020-03-04 04:00:00 8 26 Sudoeste 45 Sudoeste 0 -- -- 70
2020-03-04 03:00:00 8 24 Sudoeste 42 Sudoeste 0 -- -- 68
2020-03-04 02:00:00 7.6 14 Oeste 30 Oeste 0 -- -- 73
2020-03-04 01:00:00 4.6 5 Sudeste 10 Sudeste 0 -- -- 90
2020-03-04 00:00:00 5.7 6 Sudoeste 9 Sudoeste 0 -- -- 86
2020-03-03 23:00:00 7.5 6 Noroeste 18 Norte 0 -- -- 77
2020-03-03 22:00:00 7.8 10 Norte 19 Noroeste 0 -- -- 76
2020-03-03 21:00:00 7.6 6 Oeste 22 Noroeste 0 -- -- 78
2020-03-03 20:00:00 8.6 18 Noroeste 31 Noroeste 0 -- -- 74
2020-03-03 19:00:00 9.5 18 Noroeste 37 Norte 0 -- -- 69
2020-03-03 18:00:00 12.9 20 Noroeste 50 Oeste 0 -- -- 58
2020-03-03 17:00:00 13.7 28 Oeste 61 Oeste 0 -- -- 61
2020-03-03 16:00:00 13.8 36 Oeste 68 Oeste 0 -- -- 63
2020-03-03 15:00:00 12.7 37 Oeste 79 Oeste 0 -- -- 67
2020-03-03 14:00:00 10.7 38 Oeste 64 Oeste 0 -- -- 74
2020-03-03 13:00:00 9.5 42 Sudoeste 77 Sudoeste 0 -- -- 76
2020-03-03 12:00:00 7.8 47 Sudoeste 81 Oeste 0 -- -- 80
2020-03-03 11:00:00 6.4 36 Sudoeste 80 Sudoeste 0 -- -- 85
2020-03-03 10:00:00 3.4 34 Sudoeste 58 Sudoeste 0 -- -- 92
2020-03-03 09:00:00 2 24 Sudoeste 51 Sudoeste 0.2 -- -- 91
2020-03-03 08:00:00 1.6 23 Sur 47 Sudoeste 1.2 -- -- 91
2020-03-03 07:00:00 1.6 9 Sudoeste 37 Sudoeste 1.6 -- -- 91
2020-03-03 06:00:00 1.9 14 Sudoeste 38 Sudoeste 0.2 -- -- 89
2020-03-03 05:00:00 2.2 17 Sudoeste 38 Sudoeste 0 -- -- 84
2020-03-03 04:00:00 2.1 14 Sudoeste 37 Sudoeste 0 -- -- 81
2020-03-03 03:00:00 2 27 Sudoeste 47 Oeste 0 -- -- 79
2020-03-03 02:00:00 1.5 26 Sudoeste 46 Sudoeste 0 -- -- 79
2020-03-03 01:00:00 1.7 14 Oeste 32 Sudoeste 0 -- -- 75
2020-03-03 00:00:00 1.5 17 Sudoeste 39 Sudoeste 0 -- -- 76
2020-03-02 23:00:00 1.7 19 Sudoeste 32 Sudoeste 0 -- -- 71
2020-03-02 22:00:00 2.3 13 Oeste 32 Oeste 0 -- -- 65
2020-03-02 21:00:00 0.4 6 Sur 19 Oeste 0 -- -- 84
2020-03-02 20:00:00 1.1 5 Oeste 23 Noroeste 0 -- -- 79
2020-03-02 19:00:00 3.1 17 Noroeste 27 Noroeste 0 -- -- 69
2020-03-02 18:00:00 5.3 19 Noroeste 33 Noroeste 0 -- -- 65
2020-03-02 17:00:00 3.5 15 Noroeste 44 Noroeste 0.2 -- -- 83
2020-03-02 16:00:00 1.9 11 Oeste 35 Noroeste 0.8 -- -- 91
2020-03-02 15:00:00 2.2 14 Noroeste 40 Norte 0.4 -- -- 88
2020-03-02 14:00:00 3.6 16 Noroeste 37 Noroeste 0 -- -- 86
2020-03-02 13:00:00 1 17 Noroeste 41 Noroeste 0.8 -- -- 92
2020-03-02 12:00:00 2.2 33 Noroeste 51 Noroeste 0 -- -- 87
2020-03-02 11:00:00 3.6 8 Norte 41 Noroeste 0.2 -- -- 88
2020-03-02 10:00:00 2.8 25 Noroeste 50 Noroeste 0.2 -- -- 87
2020-03-02 09:00:00 5.5 19 Oeste 52 Oeste 0 -- -- 74
2020-03-02 08:00:00 5.9 26 Oeste 54 Oeste 0 -- -- 74
2020-03-02 07:00:00 6.9 28 Oeste 86 Oeste 2.6 -- -- 82
2020-03-02 06:00:00 8.3 40 Sudoeste 76 Sudoeste 2.2 -- -- 86
2020-03-02 05:00:00 8.4 31 Sur 76 Sudoeste 0.6 -- -- 89
2020-03-02 04:00:00 8.8 37 Sudoeste 70 Sur 1 -- -- 89
2020-03-02 03:00:00 8.4 32 Sudoeste 65 Sudoeste 3.6 -- -- 91
2020-03-02 02:00:00 8.4 39 Sur 87 Sur 2.8 -- -- 90
2020-03-02 01:00:00 8.8 35 Sur 78 Sur 3.2 -- -- 90
2020-03-02 00:00:00 8.5 26 Sur 62 Sur 2.8 -- -- 91